Regional Weather Roundup
Issued by NWS

Home | Current Version | Previous Version | Graphics & Text | Print | Product List | Glossary On
Versions: 1 2 3 4 5 6 7 8 9 10 11 12 13 14 15 16 17 18 19 20 21 22 23 24 25 26 27 28 29 30 31 32 33 34 35 36 37 38 39 40 41 42 43 44 45 46 47 48 49 50
000
ASUS43 KLOT 231806
RWRIL

ILLINOIS REGIONAL WEATHER ROUNDUP
NATIONAL WEATHER SERVICE CHICAGO/ROMEOVILLE IL
100 PM CDT TUE SEP 23 2014

NOTE: "FAIR" INDICATES FEW OR NO CLOUDS BELOW 12,000 FEET WITH NO
SIGNIFICANT WEATHER AND/OR OBSTRUCTIONS TO VISIBILITY.

* THESE STATIONS ARE NOT UNDER NWS QUALITY CONTROL. THEY ALSO MAY NOT
  REPORT WEATHER SUCH AS PRECIPITATION OR FOG.

ILZ001-002-007-009-015-016-024-231900-
NORTHWEST ILLINOIS

CITY           SKY/WX    TMP DP  RH WIND       PRES   REMARKS
MOLINE         SUNNY     72  46  39 SE9       30.30F
6HR MIN TEMP:  42; 6HR MAX TEMP:  72;

STERLING*      SUNNY     73  48  40 SW3       30.32F
SAVANNA*       SUNNY     71  49  44 SW7       30.32F
$$

ILZ003-004-008-010-011-017-018-231900-
NORTH CENTRAL ILLINOIS

CITY           SKY/WX    TMP DP  RH WIND       PRES   REMARKS
ROCKFORD       MOSUNNY   72  48  42 S3        30.34F
6HR MIN TEMP:  45; 6HR MAX TEMP:  72;

DE KALB*       SUNNY     68  49  49 SW7       30.35F
PERU*          SUNNY     72  46  39 SE5       30.34F
$$

ILZ005-006-012>014-019>023-231900-
NORTHEAST ILLINOIS

CITY           SKY/WX    TMP DP  RH WIND       PRES   REMARKS
CHICAGO-OHARE  MOSUNNY   67  47  48 SW5       30.34S
6HR MIN TEMP:  52; 6HR MAX TEMP:  67;

CHICAGO-MIDWAY MOSUNNY   71  48  43 SE5       30.34F
6HR MIN TEMP:  50; 6HR MAX TEMP:  72;

AURORA         SUNNY     70  46  42 VRB3      30.35S
6HR MIN TEMP:  42; 6HR MAX TEMP:  71;

LANSING*       SUNNY     69  47  44 SW3       30.35F
JOLIET*        SUNNY     70  45  41 W5        30.35F
WAUKEGAN       SUNNY     70  48  45 SW5       30.32F
6HR MIN TEMP:  48; 6HR MAX TEMP:  70;

DUPAGE AIRPORT SUNNY     72  47  40 CALM      30.34S
6HR MIN TEMP:  45; 6HR MAX TEMP:  72;

KANKAKEE*      SUNNY     70  48  46 CALM      30.35S
WHEELING       SUNNY     72  46  39 W5        30.35F
6HR MIN TEMP:  48; 6HR MAX TEMP:  73;

MORRIS*        SUNNY     72  49  44 SE5       30.34S
ROMEOVILLE*    SUNNY     69  45  41 SW6       30.34F
NORTHERLY ISL    N/A     69  50  50 E8          N/A
$$

LMZ740>746-231900-
SOUTHERN LAKE MICHIGAN

STATION/POSITION SKY/WX   TEMP    WIND        PRES    VSBY  WAVE
                          AIR SEA DIR/SP/G                  HT/PER
                          (F)     (DEG/KT/KT) (MB)    (MI)  (FT/S)
SOUTHERN BUOY              61 61  220/ 10/ 10 1027.7R         1/ 3
WAUKEGAN HARBOR            70     140/  6/  6   N/A
BURNHAM HARBOR             68     100/  7/  8   N/A
CALUMET HARBOR             68     180/  5/  6 1026.2S
MICHIGAN CITY 6N           63 64  300/  6/  6   N/A           1
ST. JOSEPH                 62 65  250/  8/ 10   N/A           1/ 3
$$

ILZ025>027-034>036-040-047-049-050-058-095>099-231900-
WEST-CENTRAL ILLINOIS

CITY           SKY/WX    TMP DP  RH WIND       PRES   REMARKS
QUINCY         MOSUNNY   71  43  36 SE8       30.31F
GALESBURG*     SUNNY    N/A N/A N/A SE7       30.31F
MACOMB*        SUNNY     73  43  33 SE7       30.33F
JACKSONVILLE*  SUNNY     75  48  38 S7        30.32F
PITTSFIELD*    MOSUNNY   74  44  33 E3        30.32F HAZE
$$

ILZ028>032-037-038-041>044-048-051>054-059>061-231900-
CENTRAL ILLINOIS

CITY           SKY/WX    TMP DP  RH WIND       PRES   REMARKS
PONTIAC        SUNNY     72  46  40 SE5       30.34S
BLOOMINGTON    SUNNY     71  48  43 S7        30.35F
DECATUR        SUNNY     71  46  40 CALM      30.34F
PEORIA         SUNNY     73  47  39 S9        30.33F
6HR MIN TEMP:  48; 6HR MAX TEMP:  73;

LACON*         SUNNY     70  48  46 W6        30.32F
LINCOLN*       SUNNY     74  46  36 S3        30.30F
SPRINGFIELD    SUNNY     72  48  42 VRB5      30.33F
6HR MIN TEMP:  45; 6HR MAX TEMP:  73;

TAYLORVILLE    SUNNY     70  45  40 E6        30.33F
$$

ILZ033-039-045-046-055>057-062-063-231900-
EAST-CENTRAL ILLINOIS

CITY           SKY/WX    TMP DP  RH WIND       PRES   REMARKS
CHAMPAIGN      SUNNY     71  45  39 SE7       30.35F
DANVILLE*      SUNNY     69  46  43 S3        30.32F
RANTOUL*       SUNNY     73  40  31 SE7       30.35F
MATTOON        SUNNY     70  47  43 VRB3      30.33F
PARIS*         SUNNY     70  49  47 NE6       30.35F
$$

ILZ079-100>102-231900-
SOUTHWEST ILLINOIS

CITY           SKY/WX    TMP DP  RH WIND       PRES   REMARKS
ALTON          MOSUNNY   72  43  35 CALM      30.32F
BELLEVILLE     SUNNY     72  48  43 E5        30.31F
CAHOKIA*       SUNNY     72  48  42 SE6       30.32F
SPARTA*        SUNNY     70  48  45 CALM      30.33F
$$

ILZ064>066-069>071-074>076-080>082-084>086-088>090-092>094-231900-
SOUTH-CENTRAL ILLINOIS

CITY           SKY/WX    TMP DP  RH WIND       PRES   REMARKS
CARBONDALE     SUNNY     71  44  37 VRB5      30.31F
6HR MIN TEMP:  42; 6HR MAX TEMP:  72;

CAIRO*         SUNNY     74  49  41 NE9       30.28F
EFFINGHAM*     SUNNY     71  42  35 CALM      30.34F HAZE
MARION         MOSUNNY   72  46  40 NE9       30.32F
MT. VERNON     SUNNY     70  48  46 NE5       30.34S
CENTRALIA*     SUNNY     70  45  40 E6        30.33F
SALEM*         SUNNY     71  48  45 CALM      30.33F
METROPOLIS*    SUNNY     73  46  39 NE5       30.28F
$$

ILZ067-068-072-073-078-083-087-091-231900-
SOUTHEAST ILLINOIS

CITY           SKY/WX    TMP DP  RH WIND       PRES   REMARKS
LAWRENCEVILLE  SUNNY     71  47  42 NE8       30.33F
FLORA*         SUNNY     70  45  40 NE3       30.33F HAZE
FAIRFIELD*     SUNNY    N/A N/A N/A CALM      30.32F
HARRISBURG*    SUNNY     72  44  36 SE3       30.32F
ROBINSON*      SUNNY     72  50  45 E5        30.34F
CARMI*         SUNNY     73  47  39 NE7       30.31F
$$

ABBREVIATIONS USED IN REMARKS
   TC - TEMPERATURE IN CELSIUS
  WCI - WIND CHILL INDEX
   HX - HEAT INDEX
  VSB - VISIBILITY
$$



USA.gov is the U.S. government's official web portal to all federal, state and local government web resources and services.